This demonstration page uses our WeatherBlox Daily Observations layout. Learn more.

Left ArrowRight Arrow

39.01783, -85.05884

Hourly Observations for April 21, 2018

Temp ( °F °C ) Dew Point ( °F °C ) Humidity (%) Winds ( mph kmh ) Pressure ( in mb ) Visibility ( mi km ) Precip ( " mm )
12:52 am 00:52 Mostly Clear 48 8.9 26 -3.3 42 42 ENE 8 13 30.40 1029 10 16 N/A
1:52 am 01:52 Partly Cloudy 47 8.3 27 -2.8 46 46 ENE 8 13 30.40 1030 10 16 N/A
2:52 am 02:52 Mostly Clear 46 7.8 27 -2.8 47 47 ENE 8 13 30.40 1030 10 16 N/A
3:52 am 03:52 Mostly Clear 43 6.1 27 -2.8 53 53 E 9 15 30.41 1030 10 16 N/A
4:52 am 04:52 Clear 40 4.4 26 -3.3 58 58 E 8 13 30.40 1030 10 16 N/A
5:52 am 05:52 Mostly Clear 39 3.9 26 -3.3 60 60 E 7 11 30.40 1030 10 16 N/A
6:52 am 06:52 Mostly Clear 41 5 24 -4.4 51 51 ENE 9 15 30.41 1030 10 16 N/A
7:52 am 07:52 Mostly Cloudy 43 6.1 25 -3.9 49 49 ENE 8 13 30.42 1030 10 16 N/A
8:52 am 08:52 Mostly Cloudy 46 7.8 25 -3.9 44 44 E 10 17 30.42 1030 10 16 N/A
9:52 am 09:52 Mostly Cloudy 49 9.4 23 -5 36 36 E 8 13 30.43 1031 10 16 N/A
10:52 am 10:52 Partly Cloudy 52 11.1 22 -5.6 31 31 E 8 13 30.41 1030 10 16 N/A
11:52 am 11:52 Mostly Cloudy 56 13.3 22 -5.6 27 27 E 7 11 30.40 1029 10 16 N/A
12:52 pm 12:52 Mostly Cloudy 59 15 23 -5 25 25 NNE 6 9 30.38 1029 10 16 N/A
1:52 pm 13:52 Mostly Cloudy 60 15.6 22 -5.6 23 23 N 6 9 30.37 1028 10 16 N/A
2:52 pm 14:52 Cloudy 60 15.6 23 -5 24 24 VRB 6 9 30.34 1028 10 16 N/A
3:52 pm 15:52 Cloudy 61 16.1 20 -6.7 20 20 E 5 7 30.33 1027 10 16 N/A
4:52 pm 16:52 Cloudy 62 16.7 19 -7.2 19 19 NNE 8 13 30.31 1026 10 16 N/A
5:52 pm 17:52 Cloudy 61 16.1 22 -5.6 22 22 NE 16 26 30.31 1026 10 16 N/A
6:52 pm 18:52 Cloudy 59 15 19 -7.2 21 21 ENE 10 17 30.30 1026 10 16 N/A
7:52 pm 19:52 Cloudy 58 14.4 24 -4.4 27 27 ENE 14 22 30.30 1026 10 16 N/A
8:52 pm 20:52 Cloudy 55 12.8 22 -5.6 28 28 ENE 15 24 30.30 1026 10 16 N/A
9:52 pm 21:52 Cloudy 54 12.2 21 -6.1 28 28 NNE 9 15 30.32 1027 10 16 N/A
10:52 pm 22:52 Cloudy 54 12.2 21 -6.1 28 28 NE 12 19 30.31 1027 10 16 N/A
11:52 pm 23:52 Cloudy 53 11.7 23 -5 31 31 NE 9 15 30.30 1026 10 16 N/A

Powered by AerisWeather